This demonstration page uses our WeatherBlox Daily Observations layout. Learn more.

Left ArrowRight Arrow

Hourly Observations for January 15, 2016

Temp ( °F °C ) Dew Point ( °F °C ) Humidity (%) Winds ( mph kmh ) Pressure ( in mb ) Visibility ( mi km ) Precip ( " mm )
12:53 am 00:53 Mostly Cloudy 36 2.2 29 -1.7 76 76 NW 10 17 29.62 1003 10 16 0.00 0.00
1:53 am 01:53 Cloudy 33 0.6 26 -3.3 75 75 NNW 20 31 29.65 1004 10 16 0.00 0.00
2:53 am 02:53 Mostly Cloudy 31 -0.6 24 -4.4 76 76 N 29 46 29.68 1005 10 16 0.00 0.00
3:50 am 03:50 Partly Cloudy 28 -2 21 -6 74 74 NNW 26 43 29.80 1009 10 16 0.00 0.00
3:53 am 03:53 Partly Cloudy 29 -1.7 22 -5.6 75 75 NNW 23 37 29.69 1005 10 16 0.00 0.00
4:53 am 04:53 Clear 27 -2.8 20 -6.7 75 75 NNW 17 28 29.71 1006 10 16 0.00 0.00
5:35 am 05:35 Mostly Cloudy 27 -2.8 20 -6.7 75 75 NNW 18 30 29.80 1009 10 16 0.00 0.00
5:53 am 05:53 Cloudy 27 -2.8 20 -6.7 75 75 N 22 35 29.75 1008 10 16 0.00 0.00
6:53 am 06:53 Mostly Cloudy 26 -3.3 20 -6.7 78 78 N 17 28 29.77 1008 10 16 0.00 0.00
7:53 am 07:53 Cloudy 26 -3.3 20 -6.7 78 78 NNW 17 28 29.79 1009 10 16 0.00 0.00
8:53 am 08:53 Cloudy 26 -3.3 20 -6.7 78 78 NNW 18 30 29.82 1010 10 16 0.00 0.00
9:53 am 09:53 Cloudy 26 -3.3 20 -6.7 78 78 N 14 22 29.84 1010 10 16 0.00 0.00
10:53 am 10:53 Cloudy 27 -2.8 21 -6.1 78 78 NW 12 19 29.86 1011 10 16 0.00 0.00
11:53 am 11:53 Cloudy 29 -1.7 21 -6.1 72 72 NNW 17 28 29.85 1011 10 16 0.00 0.00
12:03 pm 12:03 Cloudy 30 -1 21 -6 69 69 N 18 30 29.88 1012 10 16 0.00 0.00
12:53 pm 12:53 Mostly Cloudy 31 -0.6 22 -5.6 69 69 NNW 15 24 29.83 1010 10 16 0.00 0.00
1:01 pm 13:01 Partly Cloudy 31 -0.6 22 -5.6 69 69 NNW 16 26 29.88 1012 10 16 0.00 0.00
1:53 pm 13:53 Sunny 32 0 22 -5.6 66 66 N 14 22 29.83 1010 10 16 0.00 0.00
2:53 pm 14:53 Sunny 33 0.6 22 -5.6 64 64 N 12 19 29.83 1010 10 16 0.00 0.00
3:53 pm 15:53 Sunny 34 1.1 21 -6.1 59 59 N 12 19 29.84 1011 10 16 0.00 0.00
4:53 pm 16:53 Sunny 32 0 21 -6.1 64 64 NE 8 13 29.87 1012 10 16 0.00 0.00
5:53 pm 17:53 Clear 27 -2.8 20 -6.7 75 75 NE 5 7 29.91 1013 10 16 0.00 0.00
6:53 pm 18:53 Partly Cloudy 26 -3.3 20 -6.7 78 78 ENE 3 6 29.93 1014 10 16 0.00 0.00
7:53 pm 19:53 Cloudy 28 -2.2 21 -6.1 75 75 E 6 9 29.93 1014 10 16 0.00 0.00
8:53 pm 20:53 Cloudy 28 -2.2 21 -6.1 75 75 E 6 9 29.96 1014 10 16 0.00 0.00
9:53 pm 21:53 Cloudy 27 -2.8 20 -6.7 75 75 NE 5 7 29.98 1015 10 16 0.00 0.00
10:53 pm 22:53 Cloudy 25 -3.9 19 -7.2 78 78 NE 8 13 30.00 1016 10 16 0.00 0.00
11:53 pm 23:53 Cloudy 24 -4.4 19 -7.2 81 81 ENE 3 6 30.00 1016 10 16 0.00 0.00

Powered by AerisWeather